Terminal Aerodrome Forecast
Issued by NWS Twin Cities, MN

Home | Current Version | Previous Version | Graphics & Text | Print | Product List | Glossary On
Versions: 1 2 3 4 5 6 7 8 9 10 11 12
000
FTUS43 KMPX 241126
TAFEAU
TAF
KEAU 241126Z 2412/2512 12009KT P6SM BKN200
     FM241600 15012G21KT P6SM BKN250
     FM250000 17012KT P6SM OVC100
     FM250400 17008KT P6SM OVC060=

USA.gov is the U.S. government's official web portal to all federal, state and local government web resources and services.